Location: Barcelona
(41.3830°N, 2.1830°E)
Time: 08:42:15
(UTC+02:00)

ISS - Pass Details

Date: 21 July 2017
Orbit: 400 x 408 km, 51.6° (Epoch: 21 July)

Event Time Altitude Azimuth Distance (km) Brightness Sun altitude
Rises 05:11:10 0° 310° (NW) 2,316 -0.1 -13.7°
Reaches altitude 10° 05:13:24 10° 321° (NW) 1,456 -1.0 -13.4°
Maximum altitude 05:16:20 30° 25° (NNE) 747 -1.8 -13.0°
Drops below altitude 10° 05:19:17 10° 90° (E) 1,455 -0.3 -12.6°
Sets 05:21:30 0° 101° (E) 2,314 0.6 -12.2°
